User: anonymous   Login
Location: Unspecified
(0.0000°N, 0.0000°E)
Time: 18:54:34
(UTC+00:00)
Language:

Kosmos-2180 - Orbit

View from above orbital plane
View from above orbital plane
View from above satellite
View from above satellite

Ground track
Ground track

The orbit data is extracted from the following two-line orbital elements,

1 21875U 92008A   19077.77770753 +.00000009 +00000-0 -72770-5 0  9997
2 21875 082.9300 023.0677 0038469 137.4592 234.4205 13.73737066357326
Epoch (UTC): 18 March 2019 18:39:53
Eccentricity: 0.0038469
inclination: 82.9300°
perigee height: 958 km
apogee height: 1014 km
right ascension of ascending node: 23.0677°
argument of perigee: 137.4592°
revolutions per day: 13.73737066
mean anomaly at epoch: 234.4205°
orbit number at epoch: 35732

The dashed part of the orbit path shows where the satellite is in the earth's shadow,  

DLR